www.pogodaiklimat.ru

Погода и климат >> Архив погоды >> Канарские Острова >> La Palma


ПОГОДА в La Palma

  • Прогноз погоды в La Palma
  • Монитор погоды в La Palma
  • Климат города

АРХИВ ПОГОДЫ в La Palma

Время (UTC), дата Ветер
(напр.,м/с)
 
Видим.   Явления Облачность Т
(С)
Тd
(С)
f
(%)
Тe
(С)
Тes
(С)
Комфортность P
(гПа)
Po
(гПа)
Тmin
(С)
Tmax
(С)
R
(мм)
R24
(мм)
S
(см)
01 19.05 С 9 н/о н/о +20.4 +15.6 74 +23 +23 комфорт 1016.6 1012.9
02 19.05 С 8 н/о н/о +20.2 +15.6 75 +22 +22 комфорт 1016.1 1012.4
03 19.05 С 9 н/о н/о +20.0 +15.8 77 1015.7
04 19.05 С 8 н/о н/о +20.2 +15.2 73 +22 +22 комфорт 1015.5 1011.8
05 19.05 С 8 н/о н/о +20.3 +15.1 72 +22 +22 комфорт 1015.3 1011.6
06 19.05 С 7 20 км [макс. диам. градин 0 мм] 9/9 600 м
[Cu Sc]
+20.2 +14.9 72 +22 +22 комфорт 1015.6 1011.9 +20.0
07 19.05 С 8 н/о н/о +20.3 +15.1 72 +22 +22 комфорт 1016.0 1012.3
08 19.05 С 6 н/о н/о +20.3 +13.3 64 +22 +22 комфорт 1016.2 1012.5
09 19.05 С 7 20 км 8/8 600 м
[Cu Sc]
+20.8 +13.5 63 1016.4
10 19.05 С 8 н/о н/о +22.2 +14.4 61 +25 +25 комфорт 1016.3 1012.6
11 19.05 С 7 н/о н/о +23.0 +15.5 63 +27 +27 душно 1016.4 1012.7
12 19.05 С 8 20 км [макс. диам. градин 0 мм] 5/5 600 м
[Cu Sc]
+22.7 +15.7 65 +27 +28 душно 1016.0 1012.3
13 19.05 С 9 н/о н/о +22.6 +15.1 63 +26 +26 жарко 1015.4 1011.7
14 19.05 СВ 9 н/о н/о +22.1 +15.5 66 +26 +26 душно 1015.2 1011.5
15 19.05 С 9 20 км 6/6 600 м
[Sc]
+21.8 +15.6 68 1014.8
16 19.05 С 8 н/о н/о +21.9 +16.1 70 +26 +26 душно 1014.6 1010.9
17 19.05 С 9 н/о н/о +21.6 +16.5 73 +25 +25 комфорт 1014.2 1010.5
18 19.05 С 9 15 км [макс. диам. градин 0 мм] 8/8 1000 м
[Sc]
+21.2 +15.9 72 +25 +25 комфорт 1014.2 1010.5 +23.5
19 19.05 С 8 н/о н/о +20.8 +15.7 73 +24 +24 комфорт 1014.3 1010.6
20 19.05 С 8 н/о н/о +20.6 +15.8 74 +23 +23 комфорт 1014.4 1010.7
21 19.05 С 7 н/о н/о +20.4 +14.9 71 1014.6
22 19.05 С 5 н/о н/о +20.1 +13.5 66 +22 +22 комфорт 1014.7 1011.0
23 19.05 СЗ 5 н/о н/о +20.1 +13.3 65 +22 +22 комфорт 1014.9 1011.2
00 20.05 СЗ 5 н/о н/о +20.1 +13.3 65 +22 +22 комфорт 1014.5 1010.8
01 20.05 СЗ 4 н/о н/о +19.5 +13.3 67 +21 +21 комфорт 1014.0 1010.3
02 20.05 СЗ 4 н/о н/о +19.8 +13.5 67 +22 +22 комфорт 1013.3 1009.6
03 20.05 СЗ 4 н/о н/о +19.8 +13.5 67 1012.7
04 20.05 СЗ 3 н/о н/о +19.7 +13.4 67 +22 +22 комфорт 1012.6 1008.9
05 20.05 СЗ 2 н/о н/о +19.5 +13.4 68 +22 +22 комфорт 1012.7 1009.0
06 20.05 З 2 20 км [макс. диам. градин 0 мм] 6/6 600 м
[Sc]
+19.3 +13.5 69 +21 +21 комфорт 1012.9 1009.2 +19.0
07 20.05 С 2 н/о н/о +19.7 +13.6 68 +22 +22 комфорт 1013.4 1009.7
08 20.05 С 3 н/о н/о +20.3 +14.0 67 +23 +23 комфорт 1013.6 1009.9
09 20.05 СВ 7 20 км 6/6 600 м
[Sc]
+22.0 +15.6 67 1014.0
10 20.05 СВ 8 н/о н/о +22.2 +15.7 67 +26 +26 душно 1014.5 1010.8
11 20.05 СВ 9 н/о н/о +22.3 +16.4 69 +27 +27 душно 1014.4 1010.7
12 20.05 СВ 9 20 км [макс. диам. градин 0 мм] 6/6 600 м
[Sc]
+22.1 +16.5 71 +26 +27 душно 1014.4 1010.7
13 20.05 СВ 9 н/о н/о +22.3 +16.2 68 +26 +26 жарко 1014.4 1010.7
14 20.05 СВ 9 н/о н/о +21.9 +15.9 69 +26 +26 душно 1013.9 1010.2
15 20.05 СВ 9 20 км 8/8 600 м
[Sc]
+21.6 +15.8 70 1013.9
16 20.05 СВ 9 н/о н/о +21.5 +16.1 71 +25 +25 комфорт 1013.8 1010.1
17 20.05 СВ 9 н/о н/о +21.3 +15.9 71 +25 +25 комфорт 1013.9 1010.2
18 20.05 СВ 10 20 км [макс. диам. градин 0 мм] 9/9 600 м
[Sc]
+21.1 +16.5 75 +25 +25 комфорт 1014.0 1010.3 +22.9
19 20.05 С 10 н/о н/о +20.8 +15.9 74 +24 +24 комфорт 1014.1 1010.4
20 20.05 С 10 н/о н/о +20.7 +15.6 73 +23 +23 комфорт 1014.5 1010.8
21 20.05 С 9 н/о н/о +20.6 +16.0 75 1015.2
22 20.05 С 8 н/о н/о +20.4 +15.9 75 +23 +23 комфорт 1015.7 1012.0
23 20.05 С 5 н/о н/о +20.1 +15.2 73 +22 +22 комфорт 1016.0 1012.3
00 21.05 ЮЗ 3 н/о н/о +19.2 +14.2 73 +21 +21 комфорт 1015.6 1011.9
01 21.05 ЮЗ 3 н/о н/о +19.1 +14.1 73 +21 +21 комфорт 1015.0 1011.3
02 21.05 ЮЗ 3 н/о н/о +19.2 +14.5 74 +21 +21 комфорт 1014.6 1010.9
03 21.05 З 1 н/о н/о +19.1 +13.5 70 1014.7
04 21.05 З 3 н/о н/о +19.5 +13.7 69 +21 +21 комфорт 1014.9 1011.2
05 21.05 З 2 н/о н/о +19.7 +14.1 70 +22 +22 комфорт 1015.0 1011.3
06 21.05 СВ 7 20 км [макс. диам. градин 0 мм] 8/8 600 м
[Cu Sc]
+19.9 +15.5 76 +22 +22 комфорт 1015.4 1011.7 +18.5
07 21.05 ЮЗ 2 н/о н/о +19.1 +14.1 73 +21 +21 комфорт 1015.6 1011.9
08 21.05 С 2 н/о н/о +22.0 +14.6 63 +25 +25 комфорт 1016.3 1012.6
09 21.05 СВ 11 20 км 4/4 600 м
[Cu Sc]
+21.8 +15.6 68 1016.7
10 21.05 СВ 10 н/о н/о +22.0 +15.2 65 +26 +26 душно 1017.3 1013.6
11 21.05 С 10 н/о н/о +21.8 +15.4 67 +25 +25 комфорт 1017.3 1013.6
12 21.05 С 11 20 км [макс. диам. градин 0 мм] 8/8 600 м
[Cu Sc]
+21.3 +15.3 69 +24 +24 комфорт 1017.3 1013.6
13 21.05 СВ 12 н/о в посл. час осадки н/о +21.6 +15.5 68 +25 +25 комфорт 1017.1 1013.4
14 21.05 СВ 12 н/о н/о +21.8 +15.0 65 +25 +25 комфорт 1017.1 1013.4
15 21.05 СВ 11 20 км 8/8 1000 м
[Sc]
+21.5 +15.8 70 +25 +25 комфорт 1016.6 1012.9
16 21.05 СВ 13 н/о н/о +21.3 +16.2 73 +25 +25 комфорт 1016.4 1012.7
17 21.05 СВ 13 н/о н/о +20.9 +16.7 77 +24 +24 комфорт 1016.2 1012.5
18 21.05 С 11 20 км [макс. диам. градин 0 мм] 8/8 1000 м
[Cu Sc]
+20.9 +16.1 74 +24 +24 комфорт 1016.4 1012.7 +22.8
19 21.05 С 11 н/о н/о +20.6 +15.9 74 +23 +23 комфорт 1016.7 1013.0
20 21.05 С 12 н/о н/о +20.3 +15.7 75 +22 +22 комфорт 1016.9 1013.2
21 21.05 СВ 10 н/о н/о +20.2 +15.4 74 1017.7
22 21.05 С 10 н/о н/о +20.2 +16.2 78 +22 +22 комфорт 1018.0 1014.3
23 21.05 С 10 н/о н/о +20.2 +14.9 72 +22 +22 комфорт 1018.2 1014.5
00 22.05 С 10 н/о н/о +20.0 +14.8 72 +21 +21 комфорт 1018.1 1014.4
01 22.05 С 8 н/о н/о +19.8 +14.7 72 +21 +21 комфорт 1017.9 1014.2
02 22.05 С 7 н/о н/о +19.7 +14.7 73 +21 +21 комфорт 1017.4 1013.7
03 22.05 С 5 н/о н/о +19.2 +13.1 68 1017.0
04 22.05 СЗ 3 н/о н/о +18.9 +11.7 63 +20 +20 1016.5 1012.8
05 22.05 С 1 н/о н/о +19.0 +11.2 61 +21 +21 комфорт 1016.8 1013.1
06 22.05 СЗ 2 30 км [макс. диам. градин 0 мм] 1/1 600 м
[Sc]
+18.7 +11.0 61 +20 +20 1017.1 1013.4 +17.5
07 22.05 С 5 н/о н/о +19.6 +11.2 58 +21 +21 комфорт 1017.3 1013.6
08 22.05 СВ 7 н/о н/о +21.5 +13.6 61 +24 +24 комфорт 1017.6 1013.9
09 22.05 С 6 30 км 1/1 600 м
[Sc]
+22.7 +13.3 55 1018.0
10 22.05 СВ 10 н/о н/о +22.2 +14.8 63 +26 +26 душно 1017.9 1014.2
11 22.05 СВ 10 н/о н/о +22.7 +15.7 65 +27 +27 душно 1018.1 1014.4
12 22.05 С 9 30 км [макс. диам. градин 0 мм] 4/4 600 м
[Sc]
+23.1 +16.0 64 +28 +29 душно 1018.1 1014.4
13 22.05 СВ 9 н/о н/о +22.2 +14.7 62 +26 +26 душно 1018.0 1014.3
14 22.05 СВ 9 н/о н/о +22.0 +16.5 71 +26 +26 душно 1017.7 1014.0
15 22.05 С 7 30 км 8/8 600 м
[Cu Sc]
+22.0 +15.3 66 1017.4
16 22.05 С 7 н/о н/о +21.8 +15.5 67 +25 +25 комфорт 1016.9 1013.2
17 22.05 С 8 н/о н/о +21.5 +14.8 66 +25 +25 комфорт 1016.3 1012.6
18 22.05 С 8 30 км [макс. диам. градин 0 мм] 8/8 1000 м
[Cu Sc]
+21.3 +15.2 68 +24 +24 комфорт 1016.2 1012.5 +23.3
19 22.05 С 8 н/о н/о +20.9 +14.3 66 +23 +23 комфорт 1016.1 1012.4
20 22.05 С 7 н/о н/о +20.5 +14.9 70 +23 +23 комфорт 1016.3 1012.6
21 22.05 С 7 н/о н/о +20.3 +14.6 70 1017.0
22 22.05 С 5 н/о н/о +20.2 +12.4 61 +22 +22 комфорт 1017.2 1013.5
23 22.05 СЗ 4 н/о н/о +20.4 +11.3 56 +22 +22 комфорт 1017.4 1013.7
00 23.05 С 8 н/о н/о +20.2 +15.2 73 +22 +22 комфорт 1017.1 1013.4
01 23.05 С 4 н/о н/о +19.5 +12.6 64 +21 +21 комфорт 1016.8 1013.1
02 23.05 СЗ 2 н/о н/о +19.9 +12.6 63 +22 +22 комфорт 1016.4 1012.7
03 23.05 С 5 н/о н/о +19.8 +12.1 61 1016.1
04 23.05 С 6 н/о н/о +20.1 +13.1 64 +22 +22 комфорт 1015.7 1012.0
05 23.05 СЗ 3 н/о н/о +19.5 +11.3 59 +21 +21 комфорт 1015.4 1011.7
06 23.05 С 4 20 км [макс. диам. градин 0 мм] 9/9 600 м
[Cu Sc]
+19.8 +13.1 65 +22 +22 комфорт 1015.8 1012.1 +19.4
07 23.05 С 6 н/о н/о +20.2 +13.0 63 +22 +22 комфорт 1016.2 1012.5
08 23.05 С 7 н/о н/о +20.3 +13.1 63 +22 +22 комфорт 1016.7 1013.0
09 23.05 СВ 9 20 км 9/9 1000 м
[Cu Sc]
+20.9 +12.5 59 1016.8
10 23.05 СВ 8 н/о н/о +21.7 +12.6 56 +24 +24 комфорт 1016.9 1013.2
11 23.05 СВ 8 н/о н/о +23.0 +12.8 53 +26 +26 жарко 1017.2 1013.5
12 23.05 СВ 7 20 км [макс. диам. градин 0 мм] 5/5 600 м
[Cu Sc]
+23.0 +13.2 54 +26 +29 жарко 1017.2 1013.5
13 23.05 С 6 20 км 4/4 600 м
[Cu Sc]
+24.3 +13.4 51 +27 +32 жарко 1016.9 1013.3
14 23.05 С 7 н/о н/о +23.5 +13.1 52 +26 +26 жарко 1016.4 1012.7
15 23.05 СВ 7 20 км 3/3 600 м
[Sc]
+23.0 +13.4 55 1016.5
16 23.05 СВ 7 н/о н/о +22.6 +14.0 58 +26 +26 жарко 1016.1 1012.4
17 23.05 СВ 9 н/о н/о +21.6 +14.9 66 +25 +25 комфорт 1015.9 1012.2
18 23.05 СВ 9 20 км [макс. диам. градин 0 мм] 5/5 600 м
[Sc]
+21.3 +14.5 65 +24 +24 комфорт 1015.6 1011.9 +24.3
19 23.05 С 9 н/о н/о +20.9 +14.4 66 +23 +23 комфорт 1015.9 1012.2
20 23.05 С 10 н/о н/о +20.6 +14.1 66 +23 +23 комфорт 1016.3 1012.6
21 23.05 С 8 н/о н/о +20.6 +12.1 58 1016.9
22 23.05 С 8 н/о н/о +20.2 +13.3 65 +22 +22 комфорт 1017.4 1013.7
23 23.05 С 8 н/о н/о +20.2 +13.3 65 +22 +22 комфорт 1017.8 1014.1
00 24.05 СЗ 4 н/о н/о +20.1 +11.7 58 +22 +22 комфорт 1017.7 1014.0
01 24.05 СЗ 2 н/о н/о +20.0 +11.4 58 +22 +22 комфорт 1017.3 1013.6
02 24.05 СЗ 4 н/о н/о +19.9 +11.1 57 +21 +21 комфорт 1017.1 1013.4
03 24.05 СЗ 3 н/о н/о +20.1 +11.0 56 1016.7
04 24.05 СЗ 2 н/о н/о +20.2 +10.9 55 +22 +22 комфорт 1016.6 1012.9
05 24.05 С 5 н/о н/о +20.2 +13.0 63 +22 +22 комфорт 1016.3 1012.6
06 24.05 С 3 20 км [макс. диам. градин 0 мм] 9/9 1000 м
[Cu Sc]
+20.1 +12.1 60 +22 +22 комфорт 1016.4 1012.7 +19.8
07 24.05 СЗ 4 н/о н/о +20.2 +11.2 56 +22 +22 комфорт 1016.6 1012.9
08 24.05 СЗ 3 н/о н/о +20.3 +11.2 56 +22 +22 комфорт 1017.1 1013.4
09 24.05 С 4 25 км 8/8 600 м
[Cu Sc]
+21.2 +12.1 56 1017.4
10 24.05 СВ 5 н/о н/о +22.2 +13.4 57 +25 +25 комфорт 1017.7 1014.0
11 24.05 СВ 7 н/о н/о +23.0 +13.7 56 +26 +26 жарко 1017.8 1014.1
12 24.05 СВ 6 25 км [макс. диам. градин 0 мм] 5/5 600 м
[Cu Sc]
+23.0 +13.3 54 +26 +30 жарко 1017.9 1014.2
13 24.05 СВ 8 н/о н/о +23.0 +14.0 57 +26 +26 жарко 1017.5 1013.8
14 24.05 СВ 8 н/о н/о +23.3 +14.6 58 +27 +27 душно 1017.3 1013.6
15 24.05 СВ 8 25 км 4/4 600 м
[Sc]
+23.3 +14.3 57 1017.3
16 24.05 СВ 8 н/о н/о +22.6 +14.5 60 +26 +26 жарко 1017.2 1013.5
17 24.05 СВ 9 н/о н/о +22.1 +15.2 65 +26 +26 душно 1016.8 1013.1
18 24.05 СВ 10 20 км [макс. диам. градин 0 мм] 3/3 600 м
[Sc]
+21.6 +15.6 69 +25 +25 комфорт 1016.6 1012.9 +23.5
19 24.05 СВ 9 н/о н/о +21.0 +15.8 72 +24 +24 комфорт 1016.9 1013.2
20 24.05 С 9 н/о н/о +20.8 +15.8 73 +24 +24 комфорт 1017.2 1013.5
21 24.05 СВ 8 н/о н/о +20.5 +15.5 73 1017.9
22 24.05 СВ 3 н/о н/о +20.3 +14.4 69 +23 +23 комфорт 1018.5 1014.8
23 24.05 С 2 н/о н/о +20.2 +13.6 66 +23 +23 комфорт 1019.0 1015.3
00 25.05 З 2 н/о н/о +19.0 +13.4 70 +21 +21 комфорт 1018.7 1015.0
01 25.05 СЗ 1 н/о н/о +19.3 +13.4 69 +22 +22 комфорт 1018.2 1014.5
02 25.05 СЗ 2 н/о н/о +19.5 +11.9 61 +21 +21 комфорт 1017.6 1013.9
03 25.05 СЗ 2 н/о н/о +19.2 +12.2 64 1017.0
04 25.05 З 2 н/о н/о +19.2 +12.9 67 +21 +21 комфорт 1016.5 1012.8
05 25.05 ЮЗ 1 н/о н/о +18.9 +12.4 66 +21 +21 комфорт 1016.2 1012.5
06 25.05 ЮЗ 1 20 км 5/5 600 м
[Sc]
+19.2 +12.0 63 +21 +21 комфорт 1016.2 1012.5 +18.4
07 25.05 З 2 20 км 4/4 600 м
[Sc]
+19.4 +12.1 63 +21 +22 комфорт 1017.0 1013.3
08 25.05 С 4 н/о н/о +20.7 +13.9 65 +23 +23 комфорт 1017.2 1013.5
09 25.05 С 8 30 км 4/4 600 м
[Sc]
+22.7 +14.1 58 1017.7
10 25.05 СВ 7 н/о н/о +23.3 +14.6 58 +27 +27 душно 1017.9 1014.2
11 25.05 СВ 8 н/о н/о +23.3 +16.2 64 +28 +28 душно 1017.9 1014.2
12 25.05 СВ 9 30 км [макс. диам. градин 0 мм] 4/4 600 м
[Sc]
+23.3 +16.0 64 +28 +29 душно 1018.2 1014.5
13 25.05 СВ 8 30 км 4/4 600 м
[Sc]
+23.4 +16.7 66 +28 +31 душно 1018.0 1014.3
14 25.05 СВ 7 н/о н/о +23.8 +16.7 64 +27 +27 жарко 1017.8 1014.2
15 25.05 СВ 7 30 км 3/3 600 м
[Sc]
+23.5 +17.2 68 1017.3
16 25.05 СВ 7 н/о н/о +22.9 +17.5 72 +28 +28 душно 1016.8 1013.1
17 25.05 СВ 7 н/о н/о +22.0 +17.0 73 +26 +26 душно 1016.5 1012.8
18 25.05 СВ 7 30 км [макс. диам. градин 0 мм] 3/3 600 м
[Cu Sc]
+21.8 +17.0 74 +26 +27 душно 1016.4 1012.7 +23.8
19 25.05 СВ 6 н/о н/о +21.6 +17.4 77 +26 +26 душно 1016.4 1012.7
20 25.05 С 5 н/о н/о +21.3 +16.9 76 +25 +25 комфорт 1016.6 1012.9
21 25.05 штиль 0 н/о н/о +21.3 +16.5 74 1017.1
22 25.05 ЮЗ 2 н/о н/о +20.4 +16.0 76 +24 +24 комфорт 1017.8 1014.1
23 25.05 ЮЗ 3 н/о н/о +20.2 +16.0 77 +23 +23 комфорт 1018.0 1014.3
00 26.05 ЮЗ 2 н/о н/о +19.8 +15.6 77 +23 +23 комфорт 1017.9 1014.2

 

Местоположение метеостанции La Palma (Канарские Острова): широта 28.62 долгота -17.75 высота над уровнем моря 31 м.

В архиве по умолчанию представлена погода в La Palma за последнюю неделю. Архивные данные за месяц целиком и за предыдущие месяцы, начиная с января 2011 года, Вы можете получить, выбрав интересующий диапазон дат из раскрывающегося списка и нажав кнопку "Ввод!".

Внимание! Время в таблицах - всемирное. Для получения местного времени необходимо прибавить поправку, которая в La Palma равна 0 ч.

Смотрите также архив погоды в соседних городах и на ближайших метеорологических станциях:

Погода в La Gomera (Канарские Острова) (84 км)
Погода в Jijel Port (Алжир) (84 км)
Погода в Hierro (Канарские Острова) (90 км)
Погода в Izana (Канарские Острова) (127 км)
Погода в Tenerife Sur (Канарские Острова) (133 км)
Погода в Tenerife (Канарские Острова) (142 км)
Погода в Sta. Cruz De Teneri (Канарские Острова) (148 км)
Погода в Las Palmas (Канарские Острова) (245 км)
Погода в Fuerteventura (Канарские Острова) (381 км)
Погода в Lanzarote (Канарские Острова) (406 км)

Пояснения к столбцам:

Ветер - указаны скорость ветра в м/с - средняя за 10 мин, порывы в срок и между сроками (в фигурных скобках) и направление, откуда дует ветер: С - северный, СВ - северо-восточный, В - восточный, ЮВ - юго-восточный, Ю - южный, ЮЗ - юго-западный, З - западный, СЗ - северо-западный.
Видимость - горизонтальная дальность видимости в метрах или километрах. При видимости от 1 до 10 км при отсутствии осадков обычно наблюдается дымка, при ухудшении видимости до 1 км и менее - туман. В сухую погоду видимость может ухудшаться дымом, пылью или мглою.
Явления - указаны атмосферные явления, наблюдавшиеся в срок или в последний час перед сроком; фигурными скобками обозначены явления, наблюдавшиеся между сроками (за 1-3 часа до срока); квадратными скобками обозначены град или гололедные отложения с указанием их диаметра в мм.
Облачность - указаны через наклонную черту общая и нижняя облачность в баллах и высота нижней границы облаков в метрах; квадратными скобками обозначены формы облаков: Ci - перистые, Cs - перисто-слоистые, Cc - перисто-кучевые, Ac - высококучевые, As - высокослоистые, Sc - слоисто-кучевые, Ns - слоисто-дождевые, Cu - кучевые, Cb - кучево-дождевые. Подробнее классификацию облаков см. в Атласе облаков (PDF).
T - Температура воздуха - температура, измеренная на высоте 2 м над землей.
Td - Температура точки росы - температура, при понижении до которой содержащийся в воздухе водяной пар достигнет насыщения.
f - Относительная влажность воздуха - влажноcть воздуха, измеренная на высоте 2 м над землей.
Te - Эффективная температура - температура, которую ощущает одетый по сезону человек в тени. Характеристика душности погоды. При расчете учитывается влияние влажности воздуха и скорости ветра на теплоощущения человека.
Tes - Эффективная температура на солнце - температура, которую ощущает человек, с поправкой на солнечный нагрев. Характеристика знойности погоды. Зависит от высоты солнца над горизонтом, облачности и скорости ветра. Ночью, в пасмурную погоду, а также при ветре 12 м/с и более поправка равна нулю.
P - Атмосферное давление - приведенное к уровню моря атмосферное давление.
Po - Атмосферное давление - измеренное на уровне метеостанции атмосферное давление.
Tmin - Минимальная температура - минимум температуры воздуха на высоте 2 м над землей.
Tmax - Максимальная температура - максимум температуры воздуха на высоте 2 м над землей.
R - Количество осадков - Количество выпавших осадков за период времени, мм. При наведении курсора мыши на число - период времени, за который выпало указанное количество осадков.
R24 - Количество осадков - Количество выпавших осадков за 24 часа, мм.
S - Снежный покров - Высота снежного покрова, см. При наведении курсора мыши на число - состояние снежного покрова и степень покрытия местности в баллах.